Time,TemperatureF,DewpointF,PressureIn,WindDirection,WindDirectionDegrees,WindSpeedMPH,WindSpeedGustMPH,Humidity,HourlyPrecipIn,Conditions,Clouds,dailyrainin,SoftwareType,DateUTC
2013-02-05 04:11:00,27.0,27.0,-100.00,ENE,72,1.0,6.0,98,0.00,,,-99.99,,2013-02-05 09:11:00,
2013-02-05 05:52:00,26.0,25.0,-100.00,ENE,73,0.0,6.0,97,0.00,,,-99.99,,2013-02-05 10:52:00,
2013-02-05 06:11:00,25.0,25.0,-100.00,ENE,73,0.0,6.0,98,0.00,,,-99.99,,2013-02-05 11:11:00,
2013-02-05 06:32:00,28.0,28.0,-100.00,ENE,73,0.0,6.0,98,0.00,,,-99.99,,2013-02-05 11:32:00,
2013-02-05 06:42:00,28.0,28.0,-100.00,ENE,73,0.0,6.0,99,0.00,,,-99.99,,2013-02-05 11:42:00,
2013-02-05 06:52:00,28.0,28.0,-100.00,ENE,72,0.0,6.0,99,0.00,,,-99.99,,2013-02-05 11:52:00,
2013-02-05 07:02:00,28.0,28.0,-100.00,ENE,73,0.0,6.0,98,0.00,,,-99.99,,2013-02-05 12:02:00,
2013-02-05 07:22:00,28.0,28.0,-100.00,ENE,73,0.0,6.0,99,0.00,,,-99.99,,2013-02-05 12:22:00,
2013-02-05 07:32:00,25.0,25.0,-100.00,ENE,73,1.0,6.0,99,0.00,,,-99.99,,2013-02-05 12:32:00,
2013-02-05 07:52:00,25.0,25.0,-100.00,ENE,73,0.0,6.0,99,0.00,,,-99.99,,2013-02-05 12:52:00,
2013-02-05 08:22:00,25.0,25.0,-100.00,ENE,73,0.0,6.0,100,0.00,,,-99.99,,2013-02-05 13:22:00,
2013-02-05 10:52:00,23.0,23.0,-100.00,ENE,63,3.0,6.0,100,0.00,,,-99.99,,2013-02-05 15:52:00,
2013-02-05 12:12:00,25.0,25.0,-100.00,ENE,74,6.0,8.0,99,0.00,,,-99.99,,2013-02-05 17:12:00,
2013-02-05 12:22:00,25.0,25.0,-100.00,ENE,62,6.0,8.0,94,0.00,,,-99.99,,2013-02-05 17:22:00,
2013-02-05 12:32:00,25.0,23.0,-100.00,ENE,73,6.0,8.0,90,0.00,,,-99.99,,2013-02-05 17:32:00,
2013-02-05 12:42:00,25.0,23.0,-100.00,ENE,62,4.0,8.0,88,0.00,,,-99.99,,2013-02-05 17:42:00,
2013-02-05 12:52:00,25.0,23.0,-100.00,ENE,73,6.0,10.0,85,0.00,,,-99.99,,2013-02-05 17:52:00,
2013-02-05 13:02:00,28.0,25.0,-100.00,East,84,4.0,10.0,84,0.00,,,-99.99,,2013-02-05 18:02:00,
2013-02-05 13:11:00,25.0,21.0,-100.00,ENE,72,7.0,10.0,84,0.00,,,-99.99,,2013-02-05 18:11:00,
2013-02-05 13:22:00,25.0,21.0,-100.00,East,84,8.0,10.0,82,0.00,,,-99.99,,2013-02-05 18:22:00,
2013-02-05 13:32:00,26.0,21.0,-100.00,ENE,73,6.0,10.0,80,0.00,,,-99.99,,2013-02-05 18:32:00,
2013-02-05 13:42:00,26.0,21.0,-100.00,ENE,72,4.0,10.0,80,0.00,,,-99.99,,2013-02-05 18:42:00,
2013-02-05 13:52:00,26.0,21.0,-100.00,East,84,5.0,10.0,77,0.00,,,-99.99,,2013-02-05 18:52:00,
2013-02-05 14:02:00,27.0,21.0,-100.00,SSW,194,5.0,10.0,77,0.00,,,-99.99,,2013-02-05 19:02:00,
2013-02-05 14:11:00,26.0,21.0,-100.00,SSW,193,6.0,10.0,77,0.00,,,-99.99,,2013-02-05 19:11:00,
2013-02-05 14:22:00,26.0,21.0,-100.00,SE,129,5.0,10.0,78,0.00,,,-99.99,,2013-02-05 19:22:00,
2013-02-05 14:32:00,28.0,23.0,-100.00,SW,227,5.0,10.0,77,0.00,,,-99.99,,2013-02-05 19:32:00,
2013-02-05 14:42:00,26.0,19.0,-100.00,South,189,6.0,10.0,76,0.00,,,-99.99,,2013-02-05 19:42:00,
2013-02-05 14:52:00,26.0,21.0,-100.00,South,169,6.0,10.0,76,0.00,,,-99.99,,2013-02-05 19:52:00,
2013-02-05 15:02:00,26.0,21.0,-100.00,ENE,60,4.0,10.0,75,0.00,,,-99.99,,2013-02-05 20:02:00,
2013-02-05 15:11:00,26.0,19.0,-100.00,East,97,7.0,10.0,73,0.00,,,-99.99,,2013-02-05 20:11:00,
2013-02-05 15:21:00,26.0,21.0,-100.00,SSW,199,8.0,10.0,76,0.00,,,-99.99,,2013-02-05 20:21:00,
2013-02-05 15:32:00,27.0,21.0,-100.00,SSW,200,5.0,10.0,75,0.00,,,-99.99,,2013-02-05 20:32:00,
2013-02-05 15:42:00,26.0,19.0,-100.00,SSW,197,4.0,10.0,73,0.00,,,-99.99,,2013-02-05 20:42:00,
2013-02-05 15:52:00,26.0,19.0,-100.00,SW,216,4.0,10.0,73,0.00,,,-99.99,,2013-02-05 20:52:00,
2013-02-05 16:02:00,27.0,21.0,-100.00,SSE,152,3.0,10.0,73,0.00,,,-99.99,,2013-02-05 21:02:00,
2013-02-05 16:11:00,27.0,21.0,-100.00,SSE,168,2.0,10.0,75,0.00,,,-99.99,,2013-02-05 21:11:00,
2013-02-05 16:22:00,27.0,21.0,-100.00,WSW,255,2.0,10.0,75,0.00,,,-99.99,,2013-02-05 21:22:00,
2013-02-05 16:32:00,28.0,21.0,-100.00,SW,227,2.0,10.0,73,0.00,,,-99.99,,2013-02-05 21:32:00,
2013-02-05 16:42:00,27.0,21.0,-100.00,WSW,256,2.0,10.0,75,0.00,,,-99.99,,2013-02-05 21:42:00,
2013-02-05 16:52:00,27.0,21.0,-100.00,South,184,1.0,10.0,75,0.00,,,-99.99,,2013-02-05 21:52:00,
2013-02-05 17:02:00,28.0,21.0,-100.00,South,172,1.0,10.0,75,0.00,,,-99.99,,2013-02-05 22:02:00,
2013-02-05 17:12:00,28.0,21.0,-100.00,ESE,110,1.0,10.0,76,0.00,,,-99.99,,2013-02-05 22:12:00,
2013-02-05 17:22:00,28.0,23.0,-100.00,ESE,122,0.0,10.0,75,0.00,,,-99.99,,2013-02-05 22:22:00,
2013-02-05 17:32:00,29.0,21.0,-100.00,ESE,112,0.0,10.0,73,0.00,,,-99.99,,2013-02-05 22:32:00,
2013-02-05 17:42:00,28.0,23.0,-100.00,East,81,0.0,10.0,75,0.00,,,-99.99,,2013-02-05 22:42:00,
2013-02-05 17:52:00,28.0,23.0,-100.00,ENE,74,0.0,10.0,76,0.00,,,-99.99,,2013-02-05 22:52:00,
2013-02-05 18:02:00,28.0,23.0,-100.00,ENE,72,0.0,10.0,75,0.00,,,-99.99,,2013-02-05 23:02:00,
2013-02-05 18:11:00,28.0,23.0,-100.00,ENE,72,0.0,10.0,76,0.00,,,-99.99,,2013-02-05 23:11:00,
2013-02-05 18:22:00,28.0,23.0,-100.00,ENE,72,0.0,10.0,77,0.00,,,-99.99,,2013-02-05 23:22:00,
2013-02-05 18:32:00,28.0,23.0,-100.00,ENE,72,0.0,10.0,77,0.00,,,-99.99,,2013-02-05 23:32:00,
2013-02-05 18:42:00,28.0,23.0,-100.00,ENE,72,0.0,10.0,78,0.00,,,-99.99,,2013-02-05 23:42:00,
2013-02-05 18:52:00,29.0,23.0,-100.00,ENE,72,0.0,10.0,78,0.00,,,-99.99,,2013-02-05 23:52:00,
2013-02-05 19:02:00,28.0,23.0,-100.00,ENE,72,0.0,10.0,78,0.00,,,-99.99,,2013-02-06 00:02:00,
2013-02-05 19:12:00,28.0,25.0,-100.00,ENE,72,0.0,10.0,81,0.00,,,-99.99,,2013-02-06 00:12:00,
2013-02-05 19:22:00,28.0,25.0,-100.00,ENE,73,0.0,10.0,80,0.00,,,-99.99,,2013-02-06 00:22:00,
2013-02-05 19:32:00,29.0,25.0,-100.00,ENE,72,0.0,10.0,80,0.00,,,-99.99,,2013-02-06 00:32:00,
2013-02-05 19:42:00,28.0,25.0,-100.00,East,81,1.0,10.0,81,0.00,,,-99.99,,2013-02-06 00:42:00,
2013-02-05 19:52:00,28.0,25.0,-100.00,East,81,1.0,10.0,82,0.00,,,-99.99,,2013-02-06 00:52:00,
2013-02-05 20:02:00,28.0,25.0,-100.00,ENE,72,0.0,10.0,82,0.00,,,-99.99,,2013-02-06 01:02:00,
2013-02-05 20:12:00,28.0,23.0,-100.00,ENE,72,0.0,10.0,81,0.00,,,-99.99,,2013-02-06 01:12:00,
2013-02-05 20:22:00,28.0,23.0,-100.00,ENE,73,0.0,10.0,82,0.00,,,-99.99,,2013-02-06 01:22:00,
2013-02-05 20:32:00,28.0,25.0,-100.00,ENE,72,0.0,10.0,84,0.00,,,-99.99,,2013-02-06 01:32:00,
2013-02-05 20:42:00,28.0,25.0,-100.00,ENE,72,0.0,10.0,85,0.00,,,-99.99,,2013-02-06 01:42:00,
2013-02-05 20:52:00,28.0,25.0,-100.00,ENE,72,0.0,10.0,85,0.00,,,-99.99,,2013-02-06 01:52:00,
2013-02-05 21:02:00,27.0,23.0,-100.00,East,81,1.0,10.0,86,0.00,,,-99.99,,2013-02-06 02:02:00,
2013-02-05 21:12:00,26.0,23.0,-100.00,East,81,1.0,10.0,88,18.70,,,-99.99,,2013-02-06 02:12:00,
2013-02-05 21:22:00,26.0,25.0,-100.00,ENE,73,0.0,10.0,91,7.95,,,-99.99,,2013-02-06 02:22:00,
2013-02-05 21:32:00,25.0,25.0,-100.00,East,81,1.0,10.0,93,0.00,,,-99.99,,2013-02-06 02:32:00,
2013-02-05 21:42:00,27.0,27.0,-100.00,East,81,2.0,10.0,97,0.00,,,-99.99,,2013-02-06 02:42:00,
2013-02-05 21:52:00,29.0,28.0,-100.00,ENE,72,4.0,10.0,97,0.00,,,-99.99,,2013-02-06 02:52:00,
2013-02-05 22:03:00,29.0,28.0,-100.00,ENE,73,4.0,10.0,95,0.00,,,-99.99,,2013-02-06 03:03:00,
2013-02-05 22:12:00,30.0,30.0,-100.00,ENE,72,5.0,10.0,95,0.00,,,-99.99,,2013-02-06 03:12:00,
2013-02-05 22:22:00,30.0,28.0,-100.00,ENE,74,6.0,10.0,89,0.00,,,-99.99,,2013-02-06 03:22:00,
2013-02-05 22:32:00,30.0,27.0,-100.00,ENE,69,8.0,10.0,85,0.00,,,-99.99,,2013-02-06 03:32:00,
2013-02-05 22:42:00,31.0,28.0,-100.00,East,80,8.0,10.0,86,0.00,,,-99.99,,2013-02-06 03:42:00,
2013-02-05 22:52:00,31.0,28.0,-100.00,East,81,7.0,10.0,85,0.00,,,-99.99,,2013-02-06 03:52:00,
2013-02-05 23:02:00,31.0,28.0,-100.00,ENE,70,8.0,10.0,84,0.00,,,-99.99,,2013-02-06 04:02:00,
2013-02-05 23:11:00,31.0,28.0,-100.00,East,79,8.0,10.0,84,0.00,,,-99.99,,2013-02-06 04:11:00,
2013-02-05 23:22:00,31.0,27.0,-100.00,ENE,67,7.0,10.0,82,0.00,,,-99.99,,2013-02-06 04:22:00,
2013-02-05 23:32:00,31.0,28.0,-100.00,ENE,72,7.0,10.0,84,0.00,,,-99.99,,2013-02-06 04:32:00,
2013-02-05 23:42:00,32.0,28.0,-100.00,ENE,73,7.0,10.0,82,0.00,,,-99.99,,2013-02-06 04:42:00,
2013-02-05 23:52:00,31.0,28.0,-100.00,ENE,63,7.0,10.0,84,0.00,,,-99.99,,2013-02-06 04:52:00,